Weather History for Brownsville, TX

Change the Weather History Date:

Monday, March 11, 2013

  Actual Average Record
Temperature  
Mean Temperature 62 °F 68 °F  
Max Temperature 74 °F 78 °F 91 °F (2006)
Min Temperature 49 °F 59 °F 32 °F (1932)
Degree Days  
Heating Degree Days 3 2  
Month to date heating degree days 20 22  
Since 1 July heating degree days 313 525  
Cooling Degree Days 0 5  
Month to date cooling degree days 37 50  
Year to date cooling degree days 258 191  
Growing Degree Days 13 (Base 50)    
Moisture  
Dew Point 40 °F    
Average Humidity 46    
Maximum Humidity 71    
Minimum Humidity 20    
Precipitation  
Precipitation 0.00 in 0.03 in 1.95 in (1997)
Month to date precipitation 0.26 0.39  
Year to date precipitation 1.74 2.74  
Sea Level Pressure  
Sea Level Pressure 30.09 in    
Wind  
Wind Speed 8 mph (NNE)    
Max Wind Speed 22 mph    
Max Gust Speed 30 mph    
Visibility 10 miles    
Events      
T = Trace of Precipitation, MM = Missing Value Source: NWS Daily Summary

Daily Weather History Graph

Daily Weather History Graph

Search for Another Location

Airport:

Trip Planner

Search our weather history database for the weather conditions in past years. The results will help you decide how hot, cold, wet, or windy it might be!

Date:

Astronomy

Mar. 11, 2013 Rise Set
Actual Time 7:42 AM CDT 7:36 PM CDT
Civil Twilight 7:19 AM CDT 7:59 PM CDT
Nautical Twilight 6:53 AM CDT 8:26 PM CDT
Astronomical Twilight 6:26 AM CDT 8:53 PM CDT
Moon 7:20 AM CDT (3/11) 7:44 PM CDT (3/11)
Length of Visible Light 12h 39m
Length of Day
11h 53m
Waning Crescent, 0% of the Moon is Illuminated
Mar 11
Waning Crescent
Mar 11
New
Mar 19
First Quarter
Mar 27
Full
Apr 2
Last Quarter

Hourly Weather History & Observations

Time (CDT) Temp. Dew Point Humidity Pressure Visibility Wind Dir Wind Speed Gust Speed Precip Events Conditions
12:53 AM 66.9 °F 44.1 °F 44% 30.04 in 10.0 mi North 17.3 mph 27.6 mph N/A   Overcast
1:53 AM 64.9 °F 45.0 °F 48% 30.04 in 10.0 mi North 15.0 mph 24.2 mph N/A   Overcast
2:53 AM 64.0 °F 43.0 °F 46% 30.05 in 10.0 mi North 16.1 mph 24.2 mph N/A   Overcast
3:53 AM 63.0 °F 46.9 °F 56% 30.05 in 10.0 mi NNE 12.7 mph 21.9 mph N/A   Overcast
4:53 AM 62.1 °F 43.0 °F 50% 30.05 in 10.0 mi North 12.7 mph 19.6 mph N/A   Overcast
5:53 AM 60.1 °F 44.1 °F 55% 30.07 in 10.0 mi North 10.4 mph - N/A   Mostly Cloudy
6:53 AM 57.9 °F 43.0 °F 58% 30.10 in 10.0 mi North 6.9 mph - N/A   Clear
7:53 AM 57.0 °F 42.1 °F 57% 30.13 in 10.0 mi North 6.9 mph - N/A   Clear
8:53 AM 57.9 °F 43.0 °F 58% 30.16 in 10.0 mi NW 5.8 mph - N/A   Clear
9:53 AM 61.0 °F 42.1 °F 50% 30.17 in 10.0 mi North 10.4 mph - N/A   Clear
10:53 AM 63.0 °F 39.9 °F 43% 30.18 in 10.0 mi NNE 9.2 mph 16.1 mph N/A   Clear
11:53 AM 70.0 °F 33.1 °F 26% 30.17 in 10.0 mi NNW 10.4 mph 18.4 mph N/A   Clear
12:53 PM 71.1 °F 28.9 °F 21% 30.15 in 10.0 mi North 11.5 mph 19.6 mph N/A   Clear
1:53 PM 73.0 °F 33.1 °F 23% 30.11 in 10.0 mi NE 12.7 mph 17.3 mph N/A   Clear
2:53 PM 71.1 °F 37.0 °F 29% 30.08 in 10.0 mi East 10.4 mph - N/A   Clear
3:53 PM 71.1 °F 36.0 °F 28% 30.05 in 10.0 mi NE 6.9 mph - N/A   Clear
4:53 PM 70.0 °F 35.1 °F 28% 30.04 in 10.0 mi East 8.1 mph - N/A   Clear
5:53 PM 70.0 °F 36.0 °F 29% 30.02 in 10.0 mi NE 8.1 mph - N/A   Clear
6:53 PM 66.9 °F 37.0 °F 33% 30.04 in 10.0 mi NE 8.1 mph - N/A   Clear
7:53 PM 61.0 °F 41.0 °F 48% 30.06 in 10.0 mi ENE 8.1 mph - N/A   Clear
8:53 PM 57.0 °F 41.0 °F 55% 30.07 in 10.0 mi East 3.5 mph - N/A   Clear
9:53 PM 53.1 °F 42.1 °F 66% 30.09 in 10.0 mi SSE 3.5 mph - N/A   Clear
10:53 PM 53.1 °F 42.1 °F 66% 30.12 in 10.0 mi Calm Calm - N/A   Clear
11:53 PM 51.1 °F 42.1 °F 71% 30.12 in 10.0 mi Calm Calm - N/A   Clear